Weather Roundup
Issued by NWS Chicago, IL

Home | Current Version | Previous Version | Text Only | Print | Product List | Glossary On
Versions: 1 2 3 4 5 6 7 8 9 10 11 12 13 14 15 16 17 18 19 20 21 22 23 24 25 26 27 28 29 30 31 32 33 34 35 36 37 38 39 40 41 42 43 44 45 46 47 48 49 50
000
NZUS59 KLOT 270421
HRRLOT

CHICAGO AREA WEATHER ROUNDUP
NATIONAL WEATHER SERVICE CHICAGO/ROMEOVILLE IL
1100 PM CDT THU MAR 26 2015

NOTE: "FAIR" INDICATES FEW OR NO CLOUDS BELOW 12,000 FEET WITH NO
SIGNIFICANT WEATHER AND/OR OBSTRUCTIONS TO VISIBILITY.

* THESE STATIONS ARE NOT UNDER NWS QUALITY CONTROL. THEY ALSO MAY NOT
  REPORT WEATHER SUCH AS PRECIPITATION OR FOG.

ILZ005-006-012>014-019>023-270500-
NORTHEAST ILLINOIS

CITY           SKY/WX    TMP DP  RH WIND       PRES   REMARKS
OHARE          CLOUDY    33  18  53 N10       30.06R WCI  25
MIDWAY         FLURRIES  36  25  64 N10       30.06R
AURORA         CLOUDY    34  23  64 N9        30.07R WCI  27
LANSING*       CLOUDY    33  24  67 N13       30.06R WCI  24
JOLIET*        CLOUDY    36  22  57 CALM      30.06S
WAUKEGAN       CLOUDY    31  18  58 NW3       30.07R
DUPAGE AIRPORT CLOUDY    32  21  64 N9        30.06R WCI  24
WHEELING       CLOUDY    32  17  54 N13       30.09R WCI  22
KANKAKEE*      CLOUDY    35  26  68 NW6       30.06R WCI  30
MORRIS*        PTCLDY    32  23  70 N3        30.06S
LEWIS AIRPORT* CLOUDY    34  20  56 N8        30.06S WCI  28
NORTHERLY IS     N/A     33  23  67 MISG        N/A
$$

WIZ051-052-058>065-066-070>072-270500-
SOUTHEAST WISCONSIN

CITY           SKY/WX    TMP DP  RH WIND       PRES   REMARKS
MILWAUKEE      FLURRIES  30  22  72 NE12      30.09R WCI  20
KENOSHA*       CLOUDY    31  18  58 N10       30.08R WCI  22
RACINE*        FLURRIES  30  23  75 NE14      30.10R WCI  19
BURLINGTON     CLOUDY    29  17  60 N8        30.08R WCI  21
WAUKESHA       CLOUDY    28  18  64 NW7       30.09R WCI  21
WEST BEND      CLOUDY    28  19  69 N7        30.08R WCI  21
$$

INZ001>003-010>013-019-020-270500-
NORTHWEST INDIANA

CITY           SKY/WX    TMP DP  RH WIND       PRES   REMARKS
GARY*          CLOUDY    35  23  62 N14       30.07R WCI  26
MICHIGAN CITY* NOT AVBL
RENSSELAER*    NOT AVBL
VALPARAISO     CLOUDY    33  25  72 N7        30.05R WCI  27
$$

LMZ740>746-270500-
SOUTHERN LAKE MICHIGAN

STATION/POSITION TIME  SKY/WX   TEMP WIND        PRES    VSBY
                                AIR  DIR/SP/G
                 (UTC)          (F)  (DEG/KT/KT) (MB)    (MI)
HARRISON CRIB    0400            33  350/ 21/ 25   N/A
BURNHAM HARBOR   0400            33  350/ 15/ 17   N/A
CALUMET HARBOR   0300            34  340/ 13/ 17 1016.7R
BURNS HARBOR     0300            34   20/ 14/ 17 1017.6S
MICHIGAN CITY    0400            32  340/ 19/ 21   N/A
$$

ABBREVIATIONS USED IN REMARKS
   TC - TEMPERATURE IN CELSIUS
  WCI - WIND CHILL INDEX
   HX - HEAT INDEX
  VSB - VISIBILITY
$$


USA.gov is the U.S. government's official web portal to all federal, state and local government web resources and services.